RYR18LV LHBP-LIBD

Flight info

Callsign RYR18LV
Flight time 0h 33m
Altitude 34000
Route DUZLA DCT OSDUK DCT NETKO DCT AIOSA DCT BANAV
Aircraft B738/M-SDE2E3FGHIRWXY/LB1

Departure

Time 2026-04-20 15:59
Airport Budapest Liszt Ferenc International Airport (LHBP)

Arrival

Time 2026-04-20 16:33
Airport Bari Karol Wojtyła International Airport (LIBD)
Time Latitude Longitude Altitude Speed Heading
2026-04-20 15:28 47.43554 19.25817 456 ft 0 kts 312°
2026-04-20 15:53 47.43534 19.25874 456 ft 4 kts 258°
2026-04-20 15:53 47.43541 19.25895 456 ft 0 kts 222°
2026-04-20 15:56 47.43531 19.25881 452 ft 9 kts 222°
2026-04-20 15:56 47.43507 19.25778 455 ft 12 kts 301°
2026-04-20 15:56 47.43546 19.25673 456 ft 12 kts 258°
2026-04-20 15:57 47.43491 19.25584 456 ft 12 kts 221°
2026-04-20 15:57 47.43430 19.25506 456 ft 11 kts 221°
2026-04-20 15:57 47.43373 19.25427 456 ft 11 kts 224°
2026-04-20 15:57 47.43317 19.25351 456 ft 11 kts 222°
2026-04-20 15:58 47.43262 19.25278 456 ft 10 kts 222°
2026-04-20 15:58 47.43203 19.25200 456 ft 13 kts 222°
2026-04-20 15:58 47.43139 19.25113 456 ft 12 kts 223°
2026-04-20 15:58 47.43096 19.25006 455 ft 13 kts 258°
2026-04-20 15:59 47.43173 19.24822 455 ft 37 kts 313°
2026-04-20 15:59 47.43484 19.24319 450 ft 101 kts 312°
2026-04-20 15:59 47.44098 19.23326 470 ft 157 kts 312°
2026-04-20 15:59 47.44869 19.22101 1170 ft 162 kts 312°
2026-04-20 16:00 47.45618 19.20893 2178 ft 158 kts 312°
2026-04-20 16:00 47.46342 19.19657 2869 ft 164 kts 310°
2026-04-20 16:00 47.47118 19.18306 3346 ft 181 kts 311°
2026-04-20 16:00 47.48019 19.16851 3639 ft 201 kts 310°
2026-04-20 16:01 47.48733 19.14965 3900 ft 220 kts 290°
2026-04-20 16:01 47.48929 19.12682 4352 ft 230 kts 269°
2026-04-20 16:01 47.48494 19.10358 4913 ft 238 kts 246°
2026-04-20 16:01 47.47422 19.08451 5442 ft 248 kts 221°
2026-04-20 16:02 47.45898 19.07203 6001 ft 254 kts 208°
2026-04-20 16:02 47.44262 19.06124 6407 ft 265 kts 208°
2026-04-20 16:02 47.42535 19.04984 6816 ft 276 kts 208°
2026-04-20 16:02 47.40794 19.03814 7505 ft 279 kts 209°
2026-04-20 16:03 47.39025 19.02601 8326 ft 280 kts 210°
2026-04-20 16:03 47.37258 19.01374 9106 ft 282 kts 211°
2026-04-20 16:03 47.35474 19.00129 9869 ft 285 kts 211°
2026-04-20 16:03 47.33665 18.98863 10422 ft 295 kts 211°
2026-04-20 16:04 47.31570 18.97406 10595 ft 319 kts 211°
2026-04-20 16:04 47.22965 18.91522 12800 ft 351 kts 210°
2026-04-20 16:04 47.14009 18.85441 15705 ft 359 kts 210°
2026-04-20 16:04 47.04855 18.79216 18659 ft 365 kts 211°
2026-04-20 16:05 46.95497 18.72864 21068 ft 375 kts 210°
2026-04-20 16:05 46.85513 18.67458 23316 ft 390 kts 205°
2026-04-20 16:05 46.75091 18.62280 24960 ft 403 kts 207°
2026-04-20 16:05 46.64403 18.56776 26392 ft 417 kts 208°
2026-04-20 16:06 46.53170 18.50985 27732 ft 431 kts 208°
2026-04-20 16:06 46.45583 18.47097 28596 ft 439 kts 209°
2026-04-20 16:06 46.30154 18.39240 30342 ft 449 kts 210°
2026-04-20 16:06 46.18363 18.33285 31880 ft 445 kts 209°
2026-04-20 16:07 46.06730 18.27391 33121 ft 445 kts 209°
2026-04-20 16:07 45.94996 18.21504 34188 ft 446 kts 208°
2026-04-20 16:07 45.86933 18.17448 34163 ft 460 kts 208°
2026-04-20 16:07 45.74402 18.12104 34067 ft 486 kts 197°
2026-04-20 16:08 45.47545 18.07878 33985 ft 484 kts 194°
2026-04-20 16:08 45.21160 18.03123 33993 ft 471 kts 194°
2026-04-20 16:09 44.95242 17.98564 34042 ft 467 kts 194°
2026-04-20 16:09 44.69251 17.94026 34014 ft 474 kts 194°
2026-04-20 16:10 44.42796 17.89466 33948 ft 481 kts 193°
2026-04-20 16:10 44.19088 17.85414 33944 ft 479 kts 193°
2026-04-20 16:11 43.92990 17.80990 33912 ft 470 kts 193°
2026-04-20 16:11 43.67112 17.76649 33792 ft 469 kts 193°
2026-04-20 16:12 43.54132 17.74465 33915 ft 468 kts 193°
2026-04-20 16:12 43.41157 17.72292 33919 ft 471 kts 192°
2026-04-20 16:12 43.15014 17.67977 33927 ft 475 kts 192°
2026-04-20 16:13 42.89340 17.60841 33959 ft 467 kts 202°
2026-04-20 16:13 42.65028 17.51479 32927 ft 425 kts 201°
2026-04-20 16:14 42.59144 17.49293 31995 ft 418 kts 201°
2026-04-20 16:14 42.47789 17.45047 29723 ft 420 kts 201°
2026-04-20 16:14 42.36735 17.40956 27878 ft 409 kts 201°
2026-04-20 16:14 42.25852 17.36936 26259 ft 399 kts 201°
2026-04-20 16:15 42.15256 17.33030 24703 ft 392 kts 201°
2026-04-20 16:15 42.09042 17.30746 23729 ft 392 kts 201°
2026-04-20 16:15 42.06408 17.29778 23277 ft 392 kts 201°
2026-04-20 16:15 42.03777 17.28814 22829 ft 390 kts 201°
2026-04-20 16:16 42.01195 17.27869 22403 ft 389 kts 201°
2026-04-20 16:16 41.98591 17.26917 21990 ft 387 kts 200°
2026-04-20 16:16 41.96003 17.25972 21591 ft 384 kts 201°
2026-04-20 16:16 41.93534 17.24734 21261 ft 373 kts 212°
2026-04-20 16:17 41.91306 17.22999 20751 ft 369 kts 221°
2026-04-20 16:17 41.89357 17.20819 20360 ft 362 kts 227°
2026-04-20 16:17 41.87487 17.18560 19941 ft 359 kts 227°
2026-04-20 16:17 41.85642 17.16317 19557 ft 356 kts 227°
2026-04-20 16:18 41.83813 17.14107 19176 ft 353 kts 227°
2026-04-20 16:18 41.81984 17.11911 18799 ft 351 kts 226°
2026-04-20 16:18 41.80168 17.09741 18423 ft 348 kts 226°
2026-04-20 16:18 41.78386 17.07618 18033 ft 346 kts 226°
2026-04-20 16:19 41.76589 17.05482 17621 ft 344 kts 226°
2026-04-20 16:19 41.74805 17.03365 17236 ft 341 kts 226°
2026-04-20 16:19 41.72971 17.01366 16844 ft 343 kts 215°
2026-04-20 16:19 41.70750 17.00162 16502 ft 346 kts 200°
2026-04-20 16:20 41.68432 16.99291 16129 ft 345 kts 199°
2026-04-20 16:20 41.66117 16.98458 15758 ft 343 kts 199°
2026-04-20 16:20 41.63817 16.97625 15398 ft 342 kts 199°
2026-04-20 16:20 41.61523 16.96778 15043 ft 340 kts 199°
2026-04-20 16:21 41.59247 16.95925 14686 ft 339 kts 199°
2026-04-20 16:21 41.56980 16.95070 14334 ft 338 kts 199°
2026-04-20 16:21 41.54720 16.94215 13983 ft 337 kts 199°
2026-04-20 16:21 41.52466 16.93351 13613 ft 336 kts 200°
2026-04-20 16:22 41.50262 16.92333 13211 ft 334 kts 204°
2026-04-20 16:22 41.48094 16.91234 12830 ft 332 kts 204°
2026-04-20 16:22 41.46129 16.90225 12505 ft 331 kts 204°
2026-04-20 16:22 41.44011 16.89143 12144 ft 329 kts 204°
2026-04-20 16:23 41.41101 16.87676 11656 ft 326 kts 203°
2026-04-20 16:23 41.32676 16.83488 10280 ft 319 kts 203°
2026-04-20 16:23 41.26843 16.76317 9536 ft 287 kts 244°
2026-04-20 16:23 41.22714 16.67106 8367 ft 293 kts 241°
2026-04-20 16:24 41.19046 16.57510 7410 ft 292 kts 252°
2026-04-20 16:24 41.16772 16.48755 6346 ft 296 kts 251°
2026-04-20 16:24 41.16057 16.46235 6199 ft 287 kts 251°
2026-04-20 16:24 41.15354 16.43792 6029 ft 278 kts 250°
2026-04-20 16:25 41.14675 16.41432 5884 ft 270 kts 251°
2026-04-20 16:25 41.14024 16.39160 5728 ft 263 kts 251°
2026-04-20 16:25 41.13385 16.36923 5578 ft 258 kts 251°
2026-04-20 16:25 41.12479 16.34889 5419 ft 260 kts 227°
2026-04-20 16:26 41.10942 16.33599 5326 ft 266 kts 201°
2026-04-20 16:26 41.09095 16.33319 5174 ft 271 kts 176°
2026-04-20 16:26 41.07285 16.33985 5010 ft 268 kts 163°
2026-04-20 16:26 41.05572 16.34915 4840 ft 266 kts 152°
2026-04-20 16:27 41.04258 16.36578 4692 ft 260 kts 123°
2026-04-20 16:27 41.03689 16.38783 4531 ft 250 kts 95°
2026-04-20 16:27 41.03841 16.41012 4375 ft 238 kts 73°
2026-04-20 16:27 41.04361 16.43005 4250 ft 225 kts 68°
2026-04-20 16:28 41.04915 16.44888 4120 ft 213 kts 67°
2026-04-20 16:28 41.05443 16.46675 3975 ft 205 kts 66°
2026-04-20 16:28 41.06002 16.48413 3791 ft 204 kts 64°
2026-04-20 16:28 41.06552 16.50144 3626 ft 203 kts 67°
2026-04-20 16:29 41.07061 16.51889 3474 ft 201 kts 68°
2026-04-20 16:29 41.07542 16.53595 3352 ft 197 kts 68°
2026-04-20 16:29 41.08008 16.55261 3116 ft 186 kts 69°
2026-04-20 16:29 41.08444 16.56821 2872 ft 178 kts 68°
2026-04-20 16:30 41.08869 16.58331 2640 ft 173 kts 69°
2026-04-20 16:30 41.09288 16.59832 2438 ft 173 kts 69°
2026-04-20 16:30 41.09710 16.61338 2184 ft 174 kts 69°
2026-04-20 16:30 41.10126 16.62818 1959 ft 171 kts 70°
2026-04-20 16:31 41.10531 16.64262 1742 ft 165 kts 70°
2026-04-20 16:31 41.10926 16.65668 1507 ft 159 kts 70°
2026-04-20 16:31 41.11305 16.67021 1315 ft 156 kts 70°
2026-04-20 16:31 41.11681 16.68369 1095 ft 155 kts 70°
2026-04-20 16:32 41.12059 16.69677 964 ft 151 kts 70°
2026-04-20 16:32 41.12415 16.70969 774 ft 148 kts 70°
2026-04-20 16:32 41.12772 16.72255 533 ft 147 kts 70°
2026-04-20 16:32 41.13134 16.73524 290 ft 145 kts 70°
2026-04-20 16:33 41.13480 16.74753 145 ft 136 kts 69°
2026-04-20 16:33 41.13760 16.75732 138 ft 84 kts 69°
2026-04-20 16:33 41.13891 16.76194 127 ft 33 kts 69°
2026-04-20 16:33 41.13970 16.76466 125 ft 31 kts 69°